Lapse_Rate
7.4 7.4 7.5 7.3 7.3 7.4 7.1 6.8 6.5 6.4 6.4 6.4 6.5 6.3 6.3 6.4 6.2 6.1 6.0 6.0 6.0 5.8
7.7 7.8 7.8 7.4 7.4 7.2 6.9 6.5 6.5 6.6 6.5 6.4 6.4 6.2 6.1 6.0 5.9 6.0 6.1 6.1 5.9 5.7
7.7 7.8 7.6 7.5 7.4 7.3 6.9 6.9 6.8 6.5 6.3 6.2 6.1 6.0 6.1 6.2 6.0 6.0 5.9 5.8 5.5 5.5
7.4 7.4 7.3 7.3 7.4 7.1 6.7 6.6 6.4 6.2 6.2 5.9 6.0 6.1 6.0 5.8 5.8 5.7 5.6 5.6 5.6 5.6
7.0 7.2 7.1 7.1 6.9 6.7 6.6 6.3 6.0 5.8 5.8 6.0 6.0 5.9 5.9 5.8 5.7 5.6 5.5 5.6 5.5 5.4
6.4 6.7 6.7 6.8 6.4 6.3 5.9 5.5 5.6 5.6 5.7 5.9 5.9 5.7 5.8 5.7 5.7 5.7 5.7 5.5 5.3 5.1
6.3 6.2 6.3 6.2 6.1 5.8 5.6 5.6 5.6 5.8 5.8 5.6 5.7 5.7 5.8 5.9 5.9 5.6 5.2 4.9 4.7 4.3
6.2 6.0 5.7 5.6 5.6 5.5 5.6 5.6 5.7 5.6 5.7 5.7 5.9 5.9 5.9 5.8 5.2 4.8 4.6 4.4 4.3 4.1
5.9 5.7 5.5 5.7 5.5 5.4 5.4 5.5 5.6 5.6 5.8 5.9 5.8 5.8 5.5 4.9 4.7 4.5 4.3 4.2 4.1 4.0
6.1 5.6 5.5 5.4 5.2 5.4 5.4 5.6 5.6 5.7 6.0 5.8 5.6 5.4 5.1 4.8 4.6 4.6 4.2 4.0 3.8 4.0
5.7 5.5 5.4 5.1 5.2 5.3 5.5 5.5 5.8 6.1 5.7 5.6 5.3 5.1 4.9 4.7 4.5 4.1 3.8 4.0 4.0 4.1
5.7 5.4 5.2 5.2 5.3 5.5 5.8 5.9 5.9 5.7 5.4 5.3 5.2 5.1 4.8 4.2 4.0 3.8 3.9 4.1 4.1 4.3
5.5 5.3 5.5 5.4 5.5 5.8 5.8 5.8 5.7 5.4 5.4 5.4 5.2 4.8 4.4 4.2 3.9 4.0 4.1 4.4 4.7 4.7
5.3 5.1 5.4 5.5 5.6 5.6 5.5 5.6 5.6 5.5 5.4 5.1 4.7 4.5 4.1 4.0 4.3 4.4 4.5 4.8 4.8 4.8
Wind_Speed
14 9 8 9 11 8 10 9 11 10 11 11 12 10 9 6 5 5 5 5 4 3
9 13 13 13 12 10 12 10 12 11 11 10 11 10 8 6 6 6 5 5 5 3
14 14 13 13 13 13 13 14 13 13 12 11 10 9 9 7 6 6 5 4 5 5
13 15 14 13 13 13 13 13 12 12 12 11 10 9 9 8 7 7 6 5 5 4
15 14 14 13 14 15 14 12 13 11 12 11 10 9 8 8 7 6 6 5 4 4
15 14 13 14 14 14 14 13 13 12 11 10 9 9 9 8 6 7 6 5 4 4
16 15 15 13 14 14 14 14 13 11 11 10 10 9 8 7 7 6 6 5 5 4
15 14 13 15 14 13 12 12 12 12 11 11 9 7 8 7 7 6 6 5 3 3
17 14 15 15 14 13 12 12 12 12 12 11 7 13 12 7 7 6 5 4 3 2
16 17 16 16 15 14 13 13 12 12 11 11 11 14 14 10 5 5 5 4 3 2
16 16 16 16 14 13 12 12 11 10 11 11 8 14 15 12 8 6 5 4 4 3
18 17 15 15 15 14 13 11 10 10 11 11 10 16 15 12 8 6 5 5 5 3
17 18 17 16 15 13 12 11 9 10 10 12 12 16 17 13 7 7 5 4 4 3
15 16 16 16 12 12 11 11 11 10 10 11 10 11 12 11 7 7 5 4 3 3
Wind_Direction
155 151 142 147 144 150 136 133 127 118 113 111 107 101 99 93 89 84 82 76 57 52
135 139 143 137 140 138 129 128 121 117 110 105 101 98 94 87 87 85 78 72 71 75
146 136 134 139 137 136 130 130 127 122 117 110 104 101 100 96 83 90 81 75 71 62
137 139 142 137 134 130 129 130 126 125 121 112 106 97 92 87 90 88 88 75 70 69
141 144 137 135 136 136 133 129 126 122 113 109 105 100 96 91 84 88 90 76 85 64
139 135 132 131 132 128 129 124 123 121 118 114 107 100 90 94 97 94 88 85 83 75
142 139 136 130 129 131 132 129 125 121 115 111 103 95 94 102 106 107 99 96 91 75
135 131 126 129 132 132 131 130 126 123 119 112 110 114 115 121 116 114 108 97 93 85
139 134 135 133 135 138 137 132 129 126 124 121 118 120 110 123 122 118 121 116 100 90
141 140 141 143 146 145 142 138 135 136 136 129 127 127 122 127 124 133 141 137 136 152
146 138 146 149 149 141 144 145 145 143 135 135 139 140 145 152 147 139 144 155 166 183
144 145 149 154 150 146 154 153 147 144 146 145 156 165 164 165 157 153 155 168 186 197
149 153 156 151 152 161 157 145 147 155 162 172 173 178 175 173 161 159 164 159 161 144
158 155 152 150 157 151 146 151 161 168 174 176 175 175 179 187 180 167 160 146 145 144